| time (UTC) | temp F | wind direction | speed knots | gust knots | rain 1hr in | rain 24hr in | rain mn in | humidity % | barometer mb |
| 20260507070106 | 63 | 37 | 0.9 | 5.2 | 0.00 | 0.00 | 0.00 | 87 | 1007.7 |
| 20260507064537 | 64 | 13 | 0.0 | 2.6 | 0.00 | 0.00 | 0.00 | 87 | 1007.8 |
| 20260507063001 | 64 | 262 | 0.9 | 3.5 | 0.00 | 0.00 | 0.00 | 87 | 1007.6 |
| 20260507061544 | 63 | 249 | 0.9 | 3.5 | 0.00 | 0.00 | 0.00 | 89 | 1007.4 |
| 20260507060020 | 62 | 91 | 0.0 | 0.0 | 0.00 | 0.00 | 0.00 | 87 | 1007.5 |
| 20260507054556 | 62 | 160 | 0.0 | 0.0 | 0.00 | 0.00 | 0.00 | 87 | 1007.8 |
| 20260507053021 | 62 | 99 | 0.0 | 0.9 | 0.00 | 0.00 | 0.00 | 89 | 1007.6 |
| 20260507051605 | 60 | 107 | 0.0 | 0.9 | 0.00 | 0.00 | 0.00 | 89 | 1007.5 |
| 20260507050035 | 60 | 155 | 0.0 | 0.9 | 0.00 | 0.00 | 0.00 | 89 | 1007.9 |
| 20260507044501 | 59 | 140 | 0.0 | 0.0 | 0.00 | 0.00 | 0.00 | 89 | 1008.1 |
| 20260507043043 | 59 | 163 | 0.0 | 0.0 | 0.00 | 0.00 | 0.00 | 89 | 1008.0 |
| 20260507041522 | 59 | 163 | 0.0 | 0.0 | 0.00 | 0.00 | 0.00 | 89 | 1008.1 |
| 20260507040048 | 58 | 153 | 0.0 | 0.9 | 0.00 | 0.00 | 0.00 | 90 | 1008.1 |
| 20260507034520 | 58 | 113 | 0.0 | 2.6 | 0.00 | 0.00 | 0.00 | 90 | 1008.1 |
| 20260507033100 | 58 | 177 | 0.0 | 0.9 | 0.00 | 0.00 | 0.00 | 89 | 1008.1 |
| 20260507031531 | 58 | 134 | 0.0 | 2.6 | 0.00 | 0.00 | 0.00 | 88 | 1007.9 |
| 20260507030001 | 59 | 127 | 0.0 | 0.0 | 0.00 | 0.00 | 0.00 | 87 | 1008.0 |
| 20260507024554 | 60 | 99 | 0.0 | 0.0 | 0.00 | 0.00 | 0.00 | 87 | 1008.3 |
| 20260507023124 | 60 | 98 | 0.0 | 0.0 | 0.00 | 0.00 | 0.00 | 89 | 1008.3 |
| 20260507021559 | 60 | 99 | 0.0 | 0.0 | 0.00 | 0.00 | 0.00 | 88 | 1008.9 |
| 20260507020024 | 59 | 115 | 0.0 | 1.7 | 0.00 | 0.00 | 0.00 | 88 | 1008.8 |
| 20260507014609 | 60 | 157 | 0.0 | 0.9 | 0.00 | 0.00 | 0.00 | 86 | 1008.6 |
| 20260507013027 | 61 | 146 | 0.0 | 0.0 | 0.00 | 0.00 | 0.00 | 86 | 1008.9 |
| 20260507011608 | 61 | 145 | 0.0 | 0.0 | 0.00 | 0.00 | 0.00 | 85 | 1009.0 |
| 20260507010042 | 62 | 174 | 0.0 | 0.9 | 0.00 | 0.00 | 0.00 | 85 | 1008.9 |
| 20260507004528 | 62 | 118 | 0.0 | 0.0 | 0.00 | 0.00 | 0.00 | 84 | 1008.7 |
| 20260507003054 | 63 | 141 | 0.0 | 0.9 | 0.00 | 0.00 | 0.00 | 83 | 1008.4 |
| 20260507001526 | 63 | 139 | 0.0 | 0.9 | 0.00 | 0.00 | 0.00 | 82 | 1008.3 |
| 20260507000109 | 63 | 143 | 0.0 | 0.9 | 0.00 | 0.00 | 0.00 | 82 | 1008.3 |
| 20260506234538 | 64 | 172 | 0.0 | 1.7 | 0.00 | 0.00 | 0.00 | 81 | 1008.5 |
| 20260506233001 | 65 | 112 | 0.0 | 0.9 | 0.00 | 0.00 | 0.00 | 79 | 1008.3 |
| 20260506231555 | 65 | 171 | 0.0 | 2.6 | 0.00 | 0.00 | 0.00 | 79 | 1008.4 |
| 20260506230013 | 64 | 107 | 0.0 | 2.6 | 0.00 | 0.00 | 0.00 | 80 | 1008.5 |
| 20260506224600 | 65 | 138 | 0.0 | 3.5 | 0.00 | 0.00 | 0.00 | 79 | 1008.2 |
| 20260506223045 | 67 | 52 | 0.0 | 2.6 | 0.00 | 0.00 | 0.00 | 76 | 1008.1 |
| 20260506221502 | 67 | 72 | 0.0 | 5.2 | 0.00 | 0.00 | 0.00 | 76 | 1008.3 |
| 20260506220045 | 67 | 148 | 1.7 | 7.0 | 0.00 | 0.00 | 0.00 | 76 | 1008.3 |
| 20260506214514 | 67 | 92 | 1.7 | 6.1 | 0.00 | 0.00 | 0.00 | 75 | 1008.2 |
| 20260506213127 | 67 | 93 | 1.7 | 7.0 | 0.00 | 0.00 | 0.00 | 75 | 1007.8 |
| 20260506211533 | 68 | 71 | 0.9 | 6.1 | 0.00 | 0.00 | 0.00 | 75 | 1007.9 |
| 20260506210110 | 68 | 123 | 1.7 | 5.2 | 0.00 | 0.00 | 0.00 | 75 | 1007.7 |
| 20260506204545 | 67 | 72 | 1.7 | 6.1 | 0.00 | 0.00 | 0.00 | 76 | 1007.6 |
| 20260506203014 | 66 | 148 | 1.7 | 7.8 | 0.00 | 0.00 | 0.00 | 76 | 1007.7 |
| 20260506201559 | 66 | 105 | 0.9 | 5.2 | 0.00 | 0.00 | 0.00 | 76 | 1007.7 |
| 20260506200016 | 67 | 94 | 2.6 | 7.8 | 0.00 | 0.00 | 0.00 | 76 | 1007.9 |
| 20260506194619 | 67 | 78 | 2.6 | 7.8 | 0.00 | 0.00 | 0.00 | 76 | 1007.9 |
| 20260506193029 | 67 | 129 | 1.7 | 7.0 | 0.00 | 0.00 | 0.00 | 77 | 1008.6 |
| 20260506191502 | 67 | 98 | 2.6 | 7.8 | 0.00 | 0.00 | 0.00 | 77 | 1008.6 |
| 20260506190045 | 66 | 141 | 0.9 | 7.0 | 0.00 | 0.00 | 0.00 | 78 | 1008.7 |
| 20260506184519 | 65 | 110 | 2.6 | 7.8 | 0.00 | 0.00 | 0.00 | 79 | 1008.9 |
| 20260506183105 | 63 | 104 | 1.7 | 7.8 | 0.00 | 0.00 | 0.00 | 82 | 1009.1 |
| 20260506181538 | 61 | 63 | 1.7 | 7.8 | 0.00 | 0.00 | 0.00 | 83 | 1009.3 |
| 20260506180010 | 62 | 146 | 2.6 | 8.7 | 0.00 | 0.00 | 0.00 | 83 | 1009.3 |
| 20260506174545 | 62 | 155 | 0.9 | 7.8 | 0.00 | 0.00 | 0.00 | 84 | 1009.5 |
| 20260506173012 | 62 | 204 | 1.7 | 7.0 | 0.00 | 0.00 | 0.00 | 83 | 1009.4 |
| 20260506171554 | 62 | 128 | 3.5 | 7.8 | 0.00 | 0.00 | 0.00 | 81 | 1009.8 |
| 20260506170018 | 62 | 124 | 2.6 | 7.8 | 0.00 | 0.00 | 0.00 | 81 | 1010.0 |
| 20260506164603 | 62 | 94 | 3.5 | 8.7 | 0.00 | 0.00 | 0.00 | 81 | 1010.5 |
| 20260506163041 | 62 | 75 | 2.6 | 7.0 | 0.00 | 0.00 | 0.00 | 81 | 1010.8 |
| 20260506161514 | 62 | 88 | 2.6 | 5.2 | 0.00 | 0.00 | 0.00 | 81 | 1010.7 |
| 20260506160023 | 62 | 58 | 1.7 | 7.8 | 0.00 | 0.00 | 0.00 | 81 | 1010.9 |
| 20260506154522 | 62 | 196 | 2.6 | 9.6 | 0.00 | 0.00 | 0.00 | 81 | 1011.1 |
| 20260506153021 | 63 | 98 | 2.6 | 9.6 | 0.00 | 0.00 | 0.00 | 78 | 1011.3 |
| 20260506151502 | 64 | 70 | 2.6 | 8.7 | 0.00 | 0.00 | 0.00 | 77 | 1011.1 |
| 20260506150050 | 65 | 91 | 2.6 | 7.8 | 0.00 | 0.00 | 0.00 | 76 | 1011.1 |
| 20260506144519 | 65 | 98 | 2.6 | 9.6 | 0.00 | 0.00 | 0.00 | 77 | 1011.3 |
| 20260506143109 | 65 | 162 | 3.5 | 8.7 | 0.00 | 0.00 | 0.00 | 76 | 1011.4 |
| 20260506141537 | 64 | 56 | 1.7 | 7.0 | 0.00 | 0.00 | 0.00 | 78 | 1011.4 |
| 20260506140009 | 64 | 63 | 2.6 | 7.8 | 0.00 | 0.00 | 0.00 | 77 | 1011.3 |
| 20260506134550 | 63 | 196 | 2.6 | 7.8 | 0.00 | 0.00 | 0.00 | 79 | 1011.5 |
| 20260506133024 | 63 | 160 | 2.6 | 7.0 | 0.00 | 0.00 | 0.00 | 79 | 1011.6 |
| 20260506131603 | 63 | 109 | 1.7 | 7.8 | 0.00 | 0.00 | 0.00 | 79 | 1011.6 |
| 20260506130034 | 64 | 112 | 2.6 | 8.7 | 0.00 | 0.00 | 0.00 | 79 | 1011.9 |
| 20260506124609 | 64 | 152 | 3.5 | 10.4 | 0.00 | 0.00 | 0.00 | 78 | 1011.5 |
| 20260506123035 | 62 | 86 | 2.6 | 8.7 | 0.00 | 0.00 | 0.00 | 81 | 1011.6 |
| 20260506121513 | 60 | 130 | 3.5 | 7.8 | 0.00 | 0.00 | 0.00 | 85 | 1011.5 |
| 20260506120048 | 60 | 59 | 1.7 | 10.4 | 0.00 | 0.00 | 0.00 | 85 | 1011.3 |
| 20260506114517 | 60 | 15 | 1.7 | 6.1 | 0.00 | 0.00 | 0.00 | 88 | 1011.4 |
| 20260506113059 | 59 | 114 | 2.6 | 7.0 | 0.00 | 0.00 | 0.00 | 88 | 1011.4 |
| 20260506111528 | 58 | 163 | 1.7 | 6.1 | 0.00 | 0.00 | 0.00 | 89 | 1011.3 |
| 20260506110108 | 58 | 79 | 1.7 | 7.8 | 0.00 | 0.00 | 0.00 | 90 | 1011.6 |
| 20260506104539 | 58 | 176 | 3.5 | 8.7 | 0.00 | 0.00 | 0.00 | 90 | 1011.6 |
| 20260506103010 | 57 | 55 | 2.6 | 7.0 | 0.00 | 0.00 | 0.00 | 90 | 1011.5 |
| 20260506101538 | 57 | 141 | 1.7 | 7.0 | 0.00 | 0.00 | 0.00 | 90 | 1011.3 |
| 20260506100013 | 57 | 69 | 2.6 | 9.6 | 0.00 | 0.00 | 0.00 | 90 | 1011.3 |
| 20260506094604 | 57 | 111 | 2.6 | 7.0 | 0.00 | 0.00 | 0.00 | 90 | 1011.3 |
| 20260506093023 | 57 | 117 | 1.7 | 7.8 | 0.00 | 0.00 | 0.00 | 90 | 1011.3 |
| 20260506091608 | 57 | 143 | 2.6 | 7.8 | 0.00 | 0.00 | 0.00 | 90 | 1011.4 |
| 20260506090046 | 57 | 98 | 2.6 | 12.2 | 0.00 | 0.00 | 0.00 | 90 | 1011.5 |
| 20260506084502 | 57 | 127 | 2.6 | 8.7 | 0.00 | 0.00 | 0.00 | 90 | 1011.7 |
| 20260506083043 | 57 | 77 | 2.6 | 7.8 | 0.00 | 0.00 | 0.00 | 90 | 1011.8 |
| 20260506081512 | 57 | 152 | 2.6 | 7.8 | 0.00 | 0.00 | 0.00 | 89 | 1011.7 |
| 20260506073106 | 58 | 134 | 2.6 | 8.7 | 0.00 | 0.00 | 0.00 | 89 | 1011.6 |
| 20260506071539 | 58 | 87 | 3.5 | 8.7 | 0.00 | 0.00 | 0.00 | 88 | 1011.6 |